Regional Weather Roundup
Issued by NWS

Home | Current Version | Previous Version | Graphics & Text | Print | Product List | Glossary On
Versions: 1 2 3 4 5 6 7 8 9 10 11 12 13 14 15 16 17 18 19 20 21 22 23 24 25 26 27 28 29 30 31 32 33 34 35 36 37 38 39 40 41 42 43 44 45 46 47 48 49 50
009
ASUS43 KLSX 221157
RWRMO

WEATHER SUMMARY FOR MISSOURI
NATIONAL WEATHER SERVICE SPRINGFIELD MO
600 AM CST SUN JAN 22 2017

NOTE: "FAIR" INDICATES FEW OR NO CLOUDS BELOW 12,000 FEET WITH NO
       SIGNIFICANT WEATHER AND/OR OBSTRUCTIONS TO VISIBILITY.
       CURRENT SKY AND/OR WEATHER CONDITIONS ARE NOT AVAILABLE FOR
       CHILLICOTHE AND FARMINGTON.

MOZ001>031-035>038-043-044-053-054-221300-
...NORTHERN AND WESTERN MISSOURI...

CITY           SKY/WX    TMP DP  RH WIND       PRES   REMARKS
KANSAS CTY INT CLOUDY    44  40  85 N10       29.58R
6HR MIN TEMP:  44; 6HR MAX TEMP:  46;

LEE`S SUMMIT   CLOUDY    44  43  96 NE9       29.56R
6HR MIN TEMP:  44; 6HR MAX TEMP:  47; 6HR PCP:  0.19;

ST JOSEPH      CLOUDY    37  37 100 N8        29.62R FOG
6HR MIN TEMP:  37; 6HR MAX TEMP:  43;

CHILLICOTHE      N/A     40  39  97 N6        29.59S
6HR MIN TEMP:  40; 6HR MAX TEMP:  45;


$$
MOZ066>068-077>081-088>096-101>105-221300-
...SOUTHWEST MISSOURI...

CITY           SKY/WX    TMP DP  RH WIND       PRES   REMARKS
SPRINGFIELD    LGT RAIN  50  48  93 NE15      29.41S
6HR MIN TEMP:  49; 6HR MAX TEMP:  52; 6HR PCP: TRACE;

JOPLIN         LGT RAIN  48  48 100 N13       29.43R
6HR MIN TEMP:  48; 6HR MAX TEMP:  51; 6HR PCP:  0.14;


$$
MOZ032>034-039>042-045>050-055>058-069>072-221300-
...CENTRAL MISSOURI...

CITY           SKY/WX    TMP DP  RH WIND       PRES   REMARKS
COLUMBIA       NOT AVBL
JEFFERSON CITY CLOUDY    49  43  80 N6        29.52S
6HR MIN TEMP:  49; 6HR MAX TEMP:  52; 6HR PCP:  0.11;

ROLLA          CLOUDY    47  45  93 NE7       29.48S
6HR MIN TEMP:  47; 6HR MAX TEMP:  50; 6HR PCP:  0.04;

SEDALIA        CLOUDY    47  43  86 NE10      29.55R
6HR MIN TEMP:  47; 6HR MAX TEMP:  49; 6HR PCP:  0.03;

WARRENSBURG    CLOUDY    45  41  87 N7        29.54R

$$
MOZ051-052-059>065-221300-
...EAST CENTRAL MISSOURI...

CITY           SKY/WX    TMP DP  RH WIND       PRES   REMARKS
ST LOUIS INTL  CLOUDY    49  42  77 NE9       29.52S
6HR MIN TEMP:  48; 6HR MAX TEMP:  55;


$$
MOZ072>076-082>087-097>100-106>115-221300-
...SOUTH CENTRAL AND SOUTHEAST MISSOURI...

CITY           SKY/WX    TMP DP  RH WIND       PRES   REMARKS
CAPE GIRARDEAU MOCLDY    50  48  93 E6        29.46S
6HR MIN TEMP:  47; 6HR MAX TEMP:  50;

FARMINGTON     FOG       52  52 100 NE6       29.47F VSB 1
POPLAR BLUFF   CLOUDY    53  52  96 NE8       29.43F
6HR MIN TEMP:  50; 6HR MAX TEMP:  54; 6HR PCP: TRACE;


$$



USA.gov is the U.S. government's official web portal to all federal, state and local government web resources and services.